Location: Navarre
(52.9016°N, 113.4144°W)
Time: 14:02:11
(UTC+00:00)

Envisat - Pass Details

Date: 10 December 2021
Orbit: 764 x 766 km, 98.2° (Epoch: 28 January)

Event Time Altitude Azimuth Distance (km) Brightness Sun altitude
Rises 11:47:31 0° 21° (NNE) 3,248 6.6 -32.9°
Reaches altitude 10° 11:50:08 10° 32° (NNE) 2,316 5.9 -32.5°
Maximum altitude 11:54:35 30° 93° (E) 1,362 4.8 -31.9°
Drops below altitude 10° 11:59:00 10° 154° (SSE) 2,300 5.7 -31.2°
Sets 12:01:34 0° 165° (SSE) 3,220 6.4 -30.8°
